www.pogodaiklimat.ru
ПОГОДА в Торбете-Хейдерие

Архив погоды в Торбете-Хейдерие (Иран)

Время
(UTC), дата
12 19.05
15 19.05
18 19.05
21 19.05
00 20.05
03 20.05
06 20.05
09 20.05
12 20.05
15 20.05
18 20.05
21 20.05
00 21.05
03 21.05
06 21.05
09 21.05
12 21.05
15 21.05
18 21.05
21 21.05
00 22.05
03 22.05
06 22.05
09 22.05
12 22.05
15 22.05
18 22.05
21 22.05
00 23.05
03 23.05
06 23.05
09 23.05
12 23.05
15 23.05
18 23.05
21 23.05
00 24.05
03 24.05
06 24.05
09 24.05
12 24.05
15 24.05
18 24.05
21 24.05
00 25.05
03 25.05
06 25.05
09 25.05
12 25.05
15 25.05
18 25.05
21 25.05
00 26.05
03 26.05
06 26.05
09 26.05
Ветер
(напр.,м/с)
Видим. Явления Облачность Т
(С)
Тd
(С)
f
(%)
Тe
(С)
Тes
(С)
Комфортность P
(гПа)
Po
(гПа)
Тmin
(С)
Tmax
(С)
R
(мм)
R24
(мм)
S
(см)
С 4 12 км 4/4 1050 м
[Sc diur, vesp Ci sp]
+20.5 +7.8 44 +22 +25 комфорт 1008.8 852.9
С 3 12 км 3/3 1050 м
[Sc diur, vesp]
+17.4 +3.8 40 +17 +17 1010.1 853.6 +13.1 +21.2 666
В 5 12 км 3/3 1050 м
[Sc diur, vesp]
+11.3 +6.2 71 +9 +9 1012.5 854.8
СВ 4 12 км 1/1 1050 м
[Sc diur, vesp]
+9.7 +5.5 75 +7 +7 1011.0 854.1
СВ 4 10 км ясно +8.8 +5.6 80 +6 +6 1011.1 854.2
В 4 10 км ясно +11.3 +5.5 67 +9 +11 1012.1 854.9 +8.1 +17.4 666
СВ 4 10 км ясно +17.0 +5.5 47 +17 +28 1013.4 855.9
ЮЗ 2 12 км 1/1 1050 м
[Cu hum]
+22.5 +4.7 31 +23 +41 комфорт 1010.9 854.7
В 2 12 км 3/3 1050 м
[Cu hum]
+25.4 -0.5 18 +24 +29 комфорт 1009.1 853.5
СВ 5 12 км 3/0
[Ci sp]
+21.7 +4.2 32 +22 +22 комфорт 1010.1 854.2 +11.3 +26.1
штиль 0 12 км 3/0
[Ci sp]
+17.0 +4.8 44 +17 +17 1011.6 855.7
СВ 6 12 км 3/0
[Ci sp]
+15.0 +5.3 52 +13 +13 1010.0 855.2
С 3 12 км 3/0
[Ci sp]
+14.2 +4.4 52 +13 +13 1009.3 855.1
штиль 0 12 км 3/0
[Ci sp]
+17.2 +5.1 45 +17 +22 1009.9 855.5 +13.5 +21.7
ЮВ 4 12 км 3/0
[Cc]
+23.2 +5.5 32 +24 +34 комфорт 1009.4 855.4
В 3 12 км 4/1 1050 м
[Cu hum Ac lent Ci sp]
+27.5 +1.5 19 +26 +38 жарко 1007.5 854.2
В 5 12 км {ливн. дождь} 8/6 1050 м
[Sc diur, vesp Ci sp]
+26.9 +5.2 25 +26 +27 жарко 1006.0 852.7 0.0 0.0
В 6 10 км 4/4 1050 м
[Sc diur, vesp]
+21.7 +5.8 36 +22 +22 комфорт 1008.3 854.2 +17.2 +28.7 0.0
В 5 10 км 3/0
[Ac trans]
+18.3 +6.1 45 +18 +18 1008.6 855.0 0.0
В 6 10 км 3/0
[Ac trans]
+16.9 +4.9 45 +16 +16 1007.1 854.4 0.0
СВ 5 10 км ясно +15.8 +4.6 47 +15 +15 1007.0 853.9 0.0
В 4 10 км 8/3 1050 м
[Sc diur, vesp Ci sp]
+16.5 +5.6 48 +16 +17 1009.5 855.0 +15.7 +21.7 666 0.0
В 4 10 км 9/5 1000 м
[Cb calv Cs]
+18.0 +7.4 50 +18 +23 1011.3 856.1 0.0
СВ 3 10 км 9/5 900 м
[Cb calv Cs]
+20.3 +7.5 44 +22 +29 комфорт 1009.1 854.5 0.0
СВ 5 12 км 6/4 1200 м
[Sc diur, vesp Ci sp]
+26.5 +7.2 29 +26 +29 жарко 1005.6 852.7
В 6 12 км 6/4 1200 м
[Sc diur, vesp Ci sp]
+22.4 +7.4 38 +23 +23 комфорт 1006.3 852.5 +16.5 +27.4
СВ 3 12 км 6/4 1200 м
[Sc diur, vesp Ci sp]
+16.5 +6.1 50 +16 +16 1009.5 854.1
СВ 4 12 км 4/0
[Ci sp]
+15.5 +5.2 50 +15 +15 1007.8 853.0
СВ 6 12 км 3/0
[Ci sp]
+15.2 +5.1 51 +14 +14 1005.4 852.3
В 4 12 км ясно +16.5 +4.9 46 +16 +18 1007.0 853.0 +14.7 +22.4
ЮВ 3 12 км 1/0
[Ci sp]
+21.8 +6.0 36 +22 +36 комфорт 1006.9 852.8
Ю 6 12 км 9/4 1050 м
[Sc diur, vesp Cs]
+24.0 +5.5 30 +24 +28 комфорт 1006.6 852.8
В 2 12 км 8/4 1050 м
[Sc diur, vesp Ci sp]
+27.0 +5.7 26 +26 +30 жарко 1002.2 849.8
З 3 12 км 6/4 1050 м
[Sc diur, vesp Ci sp]
+24.9 +6.5 31 +25 +25 комфорт 1003.5 850.7 +16.5 +28.0
С 3 12 км 4/3 1050 м
[Sc diur, vesp Ci sp]
+19.7 +6.7 43 +21 +21 комфорт 1004.5 851.6
СВ 3 12 км 3/1 1050 м
[Sc diur, vesp Ci sp]
+17.8 +7.4 51 +18 +18 1004.0 851.3
штиль 0 12 км 4/0
[Ci sp]
+15.9 +6.7 54 +16 +16 1004.0 851.5
СВ 7 12 км 3/0
[Ci sp]
+18.8 +7.3 47 +19 +20 1004.7 852.3 +13.8 +24.9
СВ 4 12 км 6/1 1050 м
[Cu hum Ci sp]
+22.9 +8.4 39 +24 +33 комфорт 1005.8 853.0
штиль 0 12 км 4/3 1050 м
[Cu hum Ci sp]
+27.3 +5.6 25 +26 +45 жарко 1004.2 852.1
Ю 3 12 км 4/4 1050 м
[Sc diur, vesp]
+28.3 +5.4 23 +27 +31 жарко 1003.2 851.1
С 2 10 км 3/3 1200 м
[Sc diur, vesp]
+23.2 +8.1 38 +24 +24 комфорт 1004.8 852.0 +18.8 +28.9
В 4 10 км 1/1 1200 м
[Sc diur, vesp]
+17.8 +9.3 57 +18 +18 1007.7 854.2
СВ 4 10 км ясно +15.8 +9.2 65 +15 +15 1007.0 854.2
В 3 10 км ясно +15.2 +8.7 65 +15 +15 1007.5 854.7
СВ 5 10 км 4/0
[Ci sp]
+16.2 +9.4 64 +15 +17 1010.0 855.9 +14.9 +23.2
В 6 10 км ясно +21.7 +9.8 47 +23 +30 комфорт 1010.7 856.5
В 2 10 км 1/1 1050 м
[Cu hum]
+25.8 +8.6 34 +26 +44 жарко 1009.2 855.7
В 7 10 км 3/3 1050 м
[Cu hum]
+27.4 +6.8 27 +27 +28 жарко 1008.3 855.1
СВ 3 10 км ясно +22.6 +8.6 41 +24 +24 комфорт 1010.2 855.9 +16.2 +28.0
СВ 3 10 км ясно +18.4 +6.2 45 +19 +19 1012.0 857.6
В 3 10 км ясно +15.3 +7.0 58 +15 +15 1011.9 857.8
В 3 10 км ясно +13.7 +6.2 60 +13 +13 1011.4 857.3
В 3 10 км 1/0
[Ci sp]
+16.4 +5.4 48 +16 +19 1012.4 857.6 +12.8 +22.6
В 5 12 км 3/0
[Ac trans Ci sp]
+21.9 +6.4 37 +23 +30 комфорт 1013.0 858.5
В 5 12 км 3/3 1200 м
[Cu hum]
+25.5 +6.3 29 +25 +33 комфорт 1011.5 857.3
Местоположение метеостанции Торбете-Хейдерие (Иран): широта 35.27 долгота 59.22 высота над уровнем моря 1451 м.
В архиве по умолчанию представлена погода в Торбете-Хейдерие за последнюю неделю. Архивные данные за месяц целиком и за предыдущие месяцы, начиная с января 2011 года, Вы можете получить, выбрав интересующий диапазон дат из раскрывающегося списка и нажав кнопку "Найти!".
*Определитесь, кто Вы:
Внимание! Время в таблицах - всемирное. Для получения местного времени необходимо прибавить поправку, которая равна 3.5 ч.
Некоторые строки с данными для отдельных станций могут быть выделены курсивом. Это означает, что фактические данные отсутствуют по различным причинам, а приведенные значения являются расчетными модельными данными для данного пункта наблюдений.
Смотрите также архив погоды в соседних городах и на ближайших метеорологических станциях:
Партнеры нашего сайта:      
Пояснения к столбцам:
  • Ветер - указаны скорость ветра в м/с - средняя за 10 мин, порывы в срок и между сроками (в фигурных скобках) и направление, откуда дует ветер: С - северный,
  • СВ - северо-восточный, В - восточный, ЮВ - юго-восточный, Ю - южный, ЮЗ - юго-западный, З - западный, СЗ - северо-западный.
  • Видимость - горизонтальная дальность видимости в метрах или километрах. При видимости от 1 до 10 км при отсутствии осадков обычно наблюдается дымка, при ухудшении видимости до 1 км и менее - туман. В сухую погоду видимость может ухудшаться дымом, пылью или мглою.
  • Явления - указаны атмосферные явления, наблюдавшиеся в срок или в последний час перед сроком; фигурными скобками обозначены явления, наблюдавшиеся между сроками (за 1-3 часа до срока); квадратными скобками обозначены град или гололедные отложения с указанием их диаметра в мм.
  • Облачность - указаны через наклонную черту общая и нижняя облачность в баллах и высота нижней границы облаков в метрах; квадратными скобками обозначены формы облаков: Ci - перистые, Cs - перисто-слоистые, Cc - перисто-кучевые, Ac - высококучевые, As - высокослоистые, Sc - слоисто-кучевые, Ns - слоисто-дождевые, Cu - кучевые, Cb - кучево-дождевые. Подробнее классификацию облаков см. в Атласе облаков (PDF).
  • T - Температура воздуха - температура, измеренная на высоте 2 м над землей.
  • Td - Температура точки росы - температура, при понижении до которой содержащийся в воздухе водяной пар достигнет насыщения.
  • f - Относительная влажность воздуха - влажноcть воздуха, измеренная на высоте 2 м над землей.
  • Te - Эффективная температура - температура, которую ощущает одетый по сезону человек в тени. Характеристика душности погоды. При расчете учитывается влияние влажности воздуха и скорости ветра на теплоощущения человека.
  • Tes - Эффективная температура на солнце - температура, которую ощущает человек, с поправкой на солнечный нагрев. Характеристика знойности погоды. Зависит от высоты солнца над горизонтом, облачности и скорости ветра. Ночью, в пасмурную погоду, а также при ветре 12 м/с и более поправка равна нулю.
  • P - Атмосферное давление - приведенное к уровню моря атмосферное давление.
  • Po - Атмосферное давление - измеренное на уровне метеостанции атмосферное давление.
  • Tmin - Минимальная температура - минимум температуры воздуха на высоте 2 м над землей.
  • Tmax - Максимальная температура - максимум температуры воздуха на высоте 2 м над землей.
  • R - Количество осадков - Количество выпавших осадков за период времени, мм. При наведении курсора мыши на число - период времени, за который выпало указанное количество осадков.
  • R24 - Количество осадков - Количество выпавших осадков за 24 часа, мм.
  • S - Снежный покров - Высота снежного покрова, см. При наведении курсора мыши на число - состояние снежного покрова и степень покрытия местности в баллах.